Time,TemperatureF,DewpointF,PressureIn,WindDirection,WindDirectionDegrees,WindSpeedMPH,WindSpeedGustMPH,Humidity,HourlyPrecipIn,Conditions,Clouds,dailyrainin,SoftwareType,DateUTC
2013-08-27 00:03:00,76.9,67.1,30.08,SSE,167,5.0,7.0,72,0.00,CLR,CLR,0.00,WeatherDisplay:10.37,2013-08-27 05:03:00,
2013-08-27 00:09:00,76.7,67.0,30.08,SE,130,3.0,9.0,72,0.00,CLR,CLR,0.00,WeatherDisplay:10.37,2013-08-27 05:09:00,
2013-08-27 00:15:00,76.5,67.2,30.07,SE,130,3.0,7.0,73,0.00,CLR,CLR,0.00,WeatherDisplay:10.37,2013-08-27 05:15:00,
2013-08-27 00:21:00,76.5,67.2,30.07,SSE,155,6.0,8.0,73,0.00,CLR,CLR,0.00,WeatherDisplay:10.37,2013-08-27 05:21:00,
2013-08-27 00:27:00,76.5,67.2,30.07,SSE,166,7.0,10.0,73,0.00,CLR,CLR,0.00,WeatherDisplay:10.37,2013-08-27 05:27:00,
2013-08-27 00:33:00,76.3,67.0,30.07,South,171,5.0,7.0,73,0.00,CLR,CLR,0.00,WeatherDisplay:10.37,2013-08-27 05:33:00,
2013-08-27 00:39:00,76.1,66.8,30.07,SSE,160,5.0,7.0,73,0.00,CLR,CLR,0.00,WeatherDisplay:10.37,2013-08-27 05:39:00,
2013-08-27 00:45:00,76.0,66.7,30.07,SE,137,3.0,5.0,73,0.00,CLR,CLR,0.00,WeatherDisplay:10.37,2013-08-27 05:45:00,
2013-08-27 00:51:00,76.0,66.7,30.08,SSW,194,7.0,7.0,73,0.00,CLR,CLR,0.00,WeatherDisplay:10.37,2013-08-27 05:51:00,
2013-08-27 00:57:00,75.8,66.9,30.08,South,182,6.0,8.0,74,0.00,CLR,CLR,0.00,WeatherDisplay:10.37,2013-08-27 05:57:00,
2013-08-27 01:03:00,75.8,66.9,30.07,ESE,118,6.0,10.0,74,0.00,CLR,CLR,0.00,WeatherDisplay:10.37,2013-08-27 06:03:00,
2013-08-27 01:09:00,75.6,66.7,30.07,SSE,155,6.0,7.0,74,0.00,CLR,CLR,0.00,WeatherDisplay:10.37,2013-08-27 06:09:00,
2013-08-27 01:15:00,75.6,66.7,30.07,South,175,6.0,8.0,74,0.00,CLR,CLR,0.00,WeatherDisplay:10.37,2013-08-27 06:15:00,
2013-08-27 01:21:00,75.4,66.9,30.07,SSE,167,5.0,7.0,75,0.00,CLR,CLR,0.00,WeatherDisplay:10.37,2013-08-27 06:21:00,
2013-08-27 01:27:00,75.2,67.1,30.07,SSE,147,3.0,7.0,76,0.00,CLR,CLR,0.00,WeatherDisplay:10.37,2013-08-27 06:27:00,
2013-08-27 01:33:00,75.1,67.0,30.07,South,175,5.0,7.0,76,0.00,CLR,CLR,0.00,WeatherDisplay:10.37,2013-08-27 06:33:00,
2013-08-27 01:39:00,75.1,67.0,30.06,SSE,160,6.0,8.0,76,0.00,CLR,CLR,0.00,WeatherDisplay:10.37,2013-08-27 06:39:00,
2013-08-27 01:45:00,75.1,67.4,30.06,SSE,161,3.0,9.0,77,0.00,CLR,CLR,0.00,WeatherDisplay:10.37,2013-08-27 06:45:00,
2013-08-27 01:51:00,74.7,67.0,30.06,SSE,147,5.0,6.0,77,0.00,CLR,CLR,0.00,WeatherDisplay:10.37,2013-08-27 06:51:00,
2013-08-27 01:57:00,74.5,67.1,30.06,SSE,154,5.0,6.0,78,0.00,CLR,CLR,0.00,WeatherDisplay:10.37,2013-08-27 06:57:00,
2013-08-27 02:03:00,74.3,67.3,30.06,SE,126,3.0,5.0,79,0.00,CLR,CLR,0.00,WeatherDisplay:10.37,2013-08-27 07:03:00,
2013-08-27 02:09:00,74.1,67.1,30.06,SSE,156,2.0,7.0,79,0.00,CLR,CLR,0.00,WeatherDisplay:10.37,2013-08-27 07:09:00,
2013-08-27 02:15:00,74.0,67.4,30.06,SE,142,1.0,6.0,80,0.00,CLR,CLR,0.00,WeatherDisplay:10.37,2013-08-27 07:15:00,
2013-08-27 02:21:00,73.8,67.2,30.06,SSE,148,5.0,7.0,80,0.00,CLR,CLR,0.00,WeatherDisplay:10.37,2013-08-27 07:21:00,
2013-08-27 02:27:00,73.5,67.3,30.07,SSE,154,1.0,4.0,81,0.00,CLR,CLR,0.00,WeatherDisplay:10.37,2013-08-27 07:27:00,
2013-08-27 02:33:00,73.3,67.4,30.07,SE,129,2.0,5.0,82,0.00,CLR,CLR,0.00,WeatherDisplay:10.37,2013-08-27 07:33:00,
2013-08-27 02:39:00,73.2,67.4,30.07,SE,139,3.0,5.0,82,0.00,CLR,CLR,0.00,WeatherDisplay:10.37,2013-08-27 07:39:00,
2013-08-27 02:45:00,72.7,67.2,30.07,SE,140,0.0,4.0,83,0.00,CLR,CLR,0.00,WeatherDisplay:10.37,2013-08-27 07:45:00,
2013-08-27 02:51:00,72.7,67.2,30.07,ESE,119,3.0,5.0,83,0.00,CLR,CLR,0.00,WeatherDisplay:10.37,2013-08-27 07:51:00,
2013-08-27 02:57:00,72.5,67.4,30.07,ESE,119,3.0,5.0,84,0.00,CLR,CLR,0.00,WeatherDisplay:10.37,2013-08-27 07:57:00,
2013-08-27 03:03:00,72.2,67.4,30.06,SE,143,2.0,6.0,85,0.00,CLR,CLR,0.00,WeatherDisplay:10.37,2013-08-27 08:03:00,
2013-08-27 03:09:00,72.0,67.2,30.06,SE,130,3.0,5.0,85,0.00,CLR,CLR,0.00,WeatherDisplay:10.37,2013-08-27 08:09:00,
2013-08-27 03:15:00,72.2,67.4,30.06,SSE,152,5.0,5.0,85,0.00,CLR,CLR,0.00,WeatherDisplay:10.37,2013-08-27 08:15:00,
2013-08-27 03:21:00,72.2,67.4,30.06,SSE,156,3.0,5.0,85,0.00,CLR,CLR,0.00,WeatherDisplay:10.37,2013-08-27 08:21:00,
2013-08-27 03:27:00,72.0,67.2,30.06,South,174,2.0,5.0,85,0.00,CLR,CLR,0.00,WeatherDisplay:10.37,2013-08-27 08:27:00,
2013-08-27 03:33:00,71.6,67.1,30.06,SSE,150,0.0,4.0,86,0.00,CLR,CLR,0.00,WeatherDisplay:10.37,2013-08-27 08:33:00,
2013-08-27 03:39:00,71.6,67.5,30.06,SE,124,3.0,6.0,87,0.00,CLR,CLR,0.00,WeatherDisplay:10.37,2013-08-27 08:39:00,
2013-08-27 03:45:00,71.5,67.4,30.06,SSE,151,3.0,5.0,87,0.00,CLR,CLR,0.00,WeatherDisplay:10.37,2013-08-27 08:45:00,
2013-08-27 03:51:00,71.5,67.4,30.06,SSE,155,2.0,4.0,87,0.00,CLR,CLR,0.00,WeatherDisplay:10.37,2013-08-27 08:51:00,
2013-08-27 03:57:00,71.5,67.7,30.06,South,174,3.0,5.0,88,0.00,CLR,CLR,0.00,WeatherDisplay:10.37,2013-08-27 08:57:00,
2013-08-27 04:03:00,71.1,67.4,30.06,SE,142,2.0,5.0,88,0.00,CLR,CLR,0.00,WeatherDisplay:10.37,2013-08-27 09:03:00,
2013-08-27 04:09:00,70.8,67.4,30.06,ESE,115,1.0,3.0,89,0.00,CLR,CLR,0.00,WeatherDisplay:10.37,2013-08-27 09:09:00,
2013-08-27 04:15:00,70.7,67.6,30.07,ESE,120,1.0,5.0,90,0.00,CLR,CLR,0.00,WeatherDisplay:10.37,2013-08-27 09:15:00,
2013-08-27 04:21:00,70.7,67.6,30.07,SE,128,3.0,4.0,90,0.00,CLR,CLR,0.00,WeatherDisplay:10.37,2013-08-27 09:21:00,
2013-08-27 04:27:00,70.7,67.6,30.07,SE,144,1.0,3.0,90,0.00,CLR,CLR,0.00,WeatherDisplay:10.37,2013-08-27 09:27:00,
2013-08-27 04:33:00,70.7,67.6,30.07,SSE,156,0.0,5.0,90,0.00,CLR,CLR,0.00,WeatherDisplay:10.37,2013-08-27 09:33:00,
2013-08-27 04:39:00,70.6,67.5,30.06,SSE,158,0.0,3.0,90,0.00,CLR,CLR,0.00,WeatherDisplay:10.37,2013-08-27 09:39:00,
2013-08-27 04:45:00,70.6,67.5,30.06,SE,144,2.0,4.0,90,0.00,CLR,CLR,0.00,WeatherDisplay:10.37,2013-08-27 09:45:00,
2013-08-27 04:51:00,70.4,67.6,30.07,SE,131,1.0,5.0,91,0.00,CLR,CLR,0.00,WeatherDisplay:10.37,2013-08-27 09:51:00,
2013-08-27 04:57:00,70.4,67.6,30.07,SSE,151,1.0,5.0,91,0.00,CLR,CLR,0.00,WeatherDisplay:10.37,2013-08-27 09:57:00,
2013-08-27 05:03:00,70.2,67.4,30.06,SSE,149,2.0,3.0,91,0.00,CLR,CLR,0.00,WeatherDisplay:10.37,2013-08-27 10:03:00,
2013-08-27 05:09:00,70.2,67.4,30.06,SSE,164,0.0,3.0,91,0.00,CLR,CLR,0.00,WeatherDisplay:10.37,2013-08-27 10:09:00,
2013-08-27 05:15:00,70.2,67.4,30.07,SSE,165,3.0,6.0,91,0.00,CLR,CLR,0.00,WeatherDisplay:10.37,2013-08-27 10:15:00,
2013-08-27 05:21:00,70.0,67.3,30.07,SSE,165,3.0,5.0,91,0.00,CLR,CLR,0.00,WeatherDisplay:10.37,2013-08-27 10:21:00,
2013-08-27 05:27:00,70.4,67.3,30.07,SSE,156,3.0,5.0,90,0.00,CLR,CLR,0.00,WeatherDisplay:10.37,2013-08-27 10:27:00,
2013-08-27 05:33:00,70.4,67.3,30.07,SSE,155,5.0,7.0,90,0.00,CLR,CLR,0.00,WeatherDisplay:10.37,2013-08-27 10:33:00,
2013-08-27 05:39:00,70.4,67.3,30.07,South,182,5.0,5.0,90,0.00,CLR,CLR,0.00,WeatherDisplay:10.37,2013-08-27 10:39:00,
2013-08-27 05:45:00,70.3,67.2,30.07,SSE,163,3.0,4.0,90,0.00,CLR,CLR,0.00,WeatherDisplay:10.37,2013-08-27 10:45:00,
2013-08-27 05:51:00,70.2,67.1,30.07,SSE,158,5.0,5.0,90,0.00,CLR,CLR,0.00,WeatherDisplay:10.37,2013-08-27 10:51:00,
2013-08-27 05:57:00,70.0,66.9,30.07,South,173,1.0,6.0,90,0.00,CLR,CLR,0.00,WeatherDisplay:10.37,2013-08-27 10:57:00,
2013-08-27 06:03:00,70.0,66.9,30.07,South,176,3.0,7.0,90,0.00,CLR,CLR,0.00,WeatherDisplay:10.37,2013-08-27 11:03:00,
2013-08-27 06:09:00,70.0,66.9,30.07,SSE,157,3.0,4.0,90,0.00,CLR,CLR,0.00,WeatherDisplay:10.37,2013-08-27 11:09:00,
2013-08-27 06:15:00,69.8,66.7,30.07,SSE,155,3.0,7.0,90,0.00,CLR,CLR,0.00,WeatherDisplay:10.37,2013-08-27 11:15:00,
2013-08-27 06:21:00,69.7,66.9,30.07,SSE,147,3.0,4.0,91,0.00,CLR,CLR,0.00,WeatherDisplay:10.37,2013-08-27 11:21:00,
2013-08-27 06:27:00,69.5,66.7,30.08,SE,144,3.0,4.0,91,0.00,CLR,CLR,0.00,WeatherDisplay:10.37,2013-08-27 11:27:00,
2013-08-27 06:33:00,69.5,66.7,30.08,South,170,3.0,6.0,91,0.00,CLR,CLR,0.00,WeatherDisplay:10.37,2013-08-27 11:33:00,
2013-08-27 06:39:00,69.7,66.9,30.08,SSE,168,3.0,6.0,91,0.00,CLR,CLR,0.00,WeatherDisplay:10.37,2013-08-27 11:39:00,
2013-08-27 06:45:00,69.7,66.9,30.08,SSE,164,5.0,7.0,91,0.00,CLR,CLR,0.00,WeatherDisplay:10.37,2013-08-27 11:45:00,
2013-08-27 06:51:00,69.7,66.9,30.08,SSE,156,3.0,6.0,91,0.00,CLR,CLR,0.00,WeatherDisplay:10.37,2013-08-27 11:51:00,
2013-08-27 06:57:00,69.5,66.7,30.08,South,172,3.0,5.0,91,0.00,CLR,CLR,0.00,WeatherDisplay:10.37,2013-08-27 11:57:00,
2013-08-27 07:03:00,69.5,66.7,30.08,South,172,3.0,7.0,91,0.00,FEW,FEW,0.00,WeatherDisplay:10.37,2013-08-27 12:03:00,
2013-08-27 07:09:00,69.5,66.4,30.08,SSE,159,5.0,6.0,90,0.00,FEW,FEW,0.00,WeatherDisplay:10.37,2013-08-27 12:09:00,
2013-08-27 07:15:00,69.7,66.6,30.08,SE,145,5.0,6.0,90,0.00,FEW,FEW,0.00,WeatherDisplay:10.37,2013-08-27 12:15:00,
2013-08-27 07:21:00,69.7,66.3,30.08,SSE,158,5.0,6.0,89,0.00,FEW,FEW,0.00,WeatherDisplay:10.37,2013-08-27 12:21:00,
2013-08-27 07:27:00,69.8,66.4,30.08,South,177,3.0,4.0,89,0.00,FEW,FEW,0.00,WeatherDisplay:10.37,2013-08-27 12:27:00,
2013-08-27 07:33:00,70.0,66.2,30.08,South,173,6.0,8.0,88,0.00,FEW,FEW,0.00,WeatherDisplay:10.37,2013-08-27 12:33:00,
2013-08-27 07:39:00,70.2,66.4,30.08,SSE,168,3.0,7.0,88,0.00,FEW,FEW,0.00,WeatherDisplay:10.37,2013-08-27 12:39:00,
2013-08-27 07:45:00,70.6,66.5,30.08,SSE,167,6.0,6.0,87,0.00,FEW,FEW,0.00,WeatherDisplay:10.37,2013-08-27 12:45:00,
2013-08-27 07:51:00,70.7,66.7,30.08,South,176,6.0,7.0,87,0.00,FEW,FEW,0.00,WeatherDisplay:10.37,2013-08-27 12:51:00,
2013-08-27 07:57:00,71.1,66.7,30.08,South,183,6.0,8.0,86,0.00,FEW,FEW,0.00,WeatherDisplay:10.37,2013-08-27 12:57:00,
2013-08-27 08:03:00,71.5,66.7,30.08,South,190,6.0,9.0,85,0.00,FEW,FEW,0.00,WeatherDisplay:10.37,2013-08-27 13:03:00,
2013-08-27 08:09:00,71.6,66.8,30.08,South,178,5.0,8.0,85,0.00,FEW,FEW,0.00,WeatherDisplay:10.37,2013-08-27 13:09:00,
2013-08-27 08:15:00,72.0,66.9,30.08,South,179,7.0,8.0,84,0.00,FEW,FEW,0.00,WeatherDisplay:10.37,2013-08-27 13:15:00,
2013-08-27 08:21:00,72.4,66.9,30.08,South,179,5.0,8.0,83,0.00,FEW,FEW,0.00,WeatherDisplay:10.37,2013-08-27 13:21:00,
2013-08-27 08:27:00,72.5,66.7,30.07,SSW,195,5.0,7.0,82,0.00,FEW,FEW,0.00,WeatherDisplay:10.37,2013-08-27 13:27:00,
2013-08-27 08:33:00,73.2,66.6,30.07,South,179,6.0,7.0,80,0.00,FEW,FEW,0.00,WeatherDisplay:10.37,2013-08-27 13:33:00,
2013-08-27 08:39:00,74.0,67.0,30.08,South,190,5.0,12.0,79,0.00,FEW,FEW,0.00,WeatherDisplay:10.37,2013-08-27 13:39:00,
2013-08-27 08:45:00,74.3,66.6,30.08,South,174,6.0,10.0,77,0.00,FEW,FEW,0.00,WeatherDisplay:10.37,2013-08-27 13:45:00,
2013-08-27 08:51:00,74.7,67.0,30.08,South,174,3.0,7.0,77,0.00,FEW,FEW,0.00,WeatherDisplay:10.37,2013-08-27 13:51:00,
2013-08-27 08:57:00,75.1,66.2,30.08,SSW,200,6.0,9.0,74,0.00,FEW,FEW,0.00,WeatherDisplay:10.37,2013-08-27 13:57:00,
2013-08-27 09:03:00,75.3,66.5,30.08,South,180,5.0,7.0,74,0.00,CLR,CLR,0.00,WeatherDisplay:10.37,2013-08-27 14:03:00,
2013-08-27 09:09:00,75.7,66.0,30.08,South,176,7.0,14.0,72,0.00,CLR,CLR,0.00,WeatherDisplay:10.37,2013-08-27 14:09:00,
2013-08-27 09:15:00,76.0,65.9,30.08,SSE,159,6.0,12.0,71,0.00,CLR,CLR,0.00,WeatherDisplay:10.37,2013-08-27 14:15:00,
2013-08-27 09:21:00,76.4,66.3,30.08,South,169,7.0,8.0,71,0.00,CLR,CLR,0.00,WeatherDisplay:10.37,2013-08-27 14:21:00,
2013-08-27 09:27:00,76.9,66.3,30.08,South,181,7.0,8.0,70,0.00,CLR,CLR,0.00,WeatherDisplay:10.37,2013-08-27 14:27:00,
2013-08-27 09:33:00,77.0,65.6,30.08,SSW,193,10.0,13.0,68,0.00,CLR,CLR,0.00,WeatherDisplay:10.37,2013-08-27 14:33:00,
2013-08-27 09:39:00,77.4,66.1,30.08,South,184,7.0,9.0,68,0.00,CLR,CLR,0.00,WeatherDisplay:10.37,2013-08-27 14:39:00,
2013-08-27 09:45:00,77.8,66.4,30.08,SSE,154,6.0,10.0,68,0.00,CLR,CLR,0.00,WeatherDisplay:10.37,2013-08-27 14:45:00,
2013-08-27 09:51:00,78.3,66.0,30.08,South,186,7.0,9.0,66,0.00,CLR,CLR,0.00,WeatherDisplay:10.37,2013-08-27 14:51:00,
2013-08-27 09:57:00,78.7,66.3,30.08,SSW,201,5.0,9.0,66,0.00,CLR,CLR,0.00,WeatherDisplay:10.37,2013-08-27 14:57:00,
2013-08-27 10:03:00,79.0,66.6,30.08,SSW,200,2.0,8.0,66,0.00,CLR,CLR,0.00,WeatherDisplay:10.37,2013-08-27 15:03:00,
2013-08-27 10:09:00,79.6,66.3,30.08,South,189,8.0,10.0,64,0.00,CLR,CLR,0.00,WeatherDisplay:10.37,2013-08-27 15:09:00,
2013-08-27 10:15:00,79.7,66.4,30.08,South,169,9.0,9.0,64,0.00,CLR,CLR,0.00,WeatherDisplay:10.37,2013-08-27 15:15:00,
2013-08-27 10:21:00,80.3,66.5,30.08,SSE,161,8.0,9.0,63,0.00,CLR,CLR,0.00,WeatherDisplay:10.37,2013-08-27 15:21:00,
2013-08-27 10:27:00,81.0,67.2,30.08,South,189,6.0,7.0,63,0.00,CLR,CLR,0.00,WeatherDisplay:10.37,2013-08-27 15:27:00,
2013-08-27 10:33:00,81.0,66.3,30.08,South,190,7.0,10.0,61,0.00,CLR,CLR,0.00,WeatherDisplay:10.37,2013-08-27 15:33:00,
2013-08-27 10:39:00,81.6,66.3,30.09,South,171,10.0,15.0,60,0.00,CLR,CLR,0.00,WeatherDisplay:10.37,2013-08-27 15:39:00,
2013-08-27 10:45:00,82.1,66.8,30.09,South,174,7.0,12.0,60,0.00,CLR,CLR,0.00,WeatherDisplay:10.37,2013-08-27 15:45:00,
2013-08-27 10:51:00,82.3,66.5,30.09,South,178,7.0,8.0,59,0.00,CLR,CLR,0.00,WeatherDisplay:10.37,2013-08-27 15:51:00,
2013-08-27 10:57:00,82.7,66.9,30.09,SSW,196,7.0,10.0,59,0.00,CLR,CLR,0.00,WeatherDisplay:10.37,2013-08-27 15:57:00,
2013-08-27 11:03:00,83.2,67.3,30.09,SSW,203,5.0,8.0,59,0.00,CLR,CLR,0.00,WeatherDisplay:10.37,2013-08-27 16:03:00,
2013-08-27 11:09:00,83.7,67.3,30.09,SW,227,8.0,10.0,58,0.00,CLR,CLR,0.00,WeatherDisplay:10.37,2013-08-27 16:09:00,
2013-08-27 11:15:00,84.1,66.7,30.09,WSW,237,8.0,13.0,56,0.00,CLR,CLR,0.00,WeatherDisplay:10.37,2013-08-27 16:15:00,
2013-08-27 11:21:00,84.6,67.2,30.09,SW,228,7.0,12.0,56,0.00,CLR,CLR,0.00,WeatherDisplay:10.37,2013-08-27 16:21:00,
2013-08-27 11:27:00,85.5,67.4,30.09,WSW,256,7.0,12.0,55,0.00,CLR,CLR,0.00,WeatherDisplay:10.37,2013-08-27 16:27:00,
2013-08-27 11:33:00,85.7,67.1,30.09,SW,215,6.0,12.0,54,0.00,CLR,CLR,0.00,WeatherDisplay:10.37,2013-08-27 16:33:00,
2013-08-27 11:39:00,86.5,67.4,30.08,South,186,6.0,9.0,53,0.00,CLR,CLR,0.00,WeatherDisplay:10.37,2013-08-27 16:39:00,
2013-08-27 11:45:00,86.8,67.6,30.08,South,187,5.0,10.0,53,0.00,CLR,CLR,0.00,WeatherDisplay:10.37,2013-08-27 16:45:00,
2013-08-27 11:51:00,87.1,66.7,30.09,SSE,153,8.0,10.0,51,0.00,CLR,CLR,0.00,WeatherDisplay:10.37,2013-08-27 16:51:00,
2013-08-27 11:57:00,87.7,67.3,30.09,South,180,7.0,10.0,51,0.00,CLR,CLR,0.00,WeatherDisplay:10.37,2013-08-27 16:57:00,
2013-08-27 12:03:00,88.0,67.0,30.09,South,184,3.0,5.0,50,0.00,CLR,CLR,0.00,WeatherDisplay:10.37,2013-08-27 17:03:00,
2013-08-27 12:09:00,88.3,66.7,30.09,SW,225,8.0,9.0,49,0.00,CLR,CLR,0.00,WeatherDisplay:10.37,2013-08-27 17:09:00,
2013-08-27 12:15:00,88.7,67.7,30.08,WSW,238,7.0,12.0,50,0.00,CLR,CLR,0.00,WeatherDisplay:10.37,2013-08-27 17:15:00,
2013-08-27 12:21:00,89.1,66.8,30.08,WNW,283,13.0,17.0,48,0.00,CLR,CLR,0.00,WeatherDisplay:10.37,2013-08-27 17:21:00,
2013-08-27 12:27:00,89.8,66.8,30.08,West,266,7.0,12.0,47,0.00,CLR,CLR,0.00,WeatherDisplay:10.37,2013-08-27 17:27:00,
2013-08-27 12:33:00,89.4,66.5,30.08,West,263,12.0,15.0,47,0.00,CLR,CLR,0.00,WeatherDisplay:10.37,2013-08-27 17:33:00,
2013-08-27 12:39:00,89.5,67.2,30.07,WSW,255,9.0,14.0,48,0.00,CLR,CLR,0.00,WeatherDisplay:10.37,2013-08-27 17:39:00,
2013-08-27 12:45:00,90.0,67.6,30.07,SW,219,7.0,12.0,48,0.00,CLR,CLR,0.00,WeatherDisplay:10.37,2013-08-27 17:45:00,
2013-08-27 12:51:00,89.5,66.0,30.07,SSW,194,10.0,15.0,46,0.00,CLR,CLR,0.00,WeatherDisplay:10.37,2013-08-27 17:51:00,
2013-08-27 12:57:00,89.9,66.3,30.07,SW,225,7.0,12.0,46,0.00,CLR,CLR,0.00,WeatherDisplay:10.37,2013-08-27 17:57:00,
2013-08-27 13:03:00,90.9,67.3,30.07,WSW,237,8.0,14.0,46,0.00,FEW,FEW,0.00,WeatherDisplay:10.37,2013-08-27 18:03:00,
2013-08-27 13:09:00,91.2,66.2,30.07,WSW,246,6.0,10.0,44,0.00,FEW,FEW,0.00,WeatherDisplay:10.37,2013-08-27 18:09:00,
2013-08-27 13:15:00,90.7,65.8,30.06,SSW,193,9.0,12.0,44,0.00,FEW,FEW,0.00,WeatherDisplay:10.37,2013-08-27 18:15:00,
2013-08-27 13:21:00,91.7,64.6,30.06,SW,216,10.0,14.0,41,0.00,FEW,FEW,0.00,WeatherDisplay:10.37,2013-08-27 18:21:00,
2013-08-27 13:27:00,92.0,65.6,30.06,West,264,5.0,7.0,42,0.00,FEW,FEW,0.00,WeatherDisplay:10.37,2013-08-27 18:27:00,
2013-08-27 13:33:00,91.8,64.8,30.06,NW,308,12.0,16.0,41,0.00,FEW,FEW,0.00,WeatherDisplay:10.37,2013-08-27 18:33:00,
2013-08-27 13:39:00,92.4,63.1,30.05,West,262,7.0,12.0,38,0.00,FEW,FEW,0.00,WeatherDisplay:10.37,2013-08-27 18:39:00,
2013-08-27 13:45:00,91.6,60.9,30.05,SSW,211,10.0,17.0,36,0.00,FEW,FEW,0.00,WeatherDisplay:10.37,2013-08-27 18:45:00,
2013-08-27 13:51:00,91.8,61.8,30.05,SW,214,8.0,10.0,37,0.00,FEW,FEW,0.00,WeatherDisplay:10.37,2013-08-27 18:51:00,
2013-08-27 13:57:00,93.1,64.5,30.05,WSW,257,7.0,9.0,39,0.00,FEW,FEW,0.00,WeatherDisplay:10.37,2013-08-27 18:57:00,
2013-08-27 14:03:00,92.3,63.7,30.04,WSW,248,9.0,15.0,39,0.00,FEW,FEW,0.00,WeatherDisplay:10.37,2013-08-27 19:03:00,
2013-08-27 14:09:00,92.3,63.0,30.04,WSW,249,10.0,22.0,38,0.00,FEW,FEW,0.00,WeatherDisplay:10.37,2013-08-27 19:09:00,
2013-08-27 14:15:00,91.3,63.6,30.04,West,268,6.0,8.0,40,0.00,FEW,FEW,0.00,WeatherDisplay:10.37,2013-08-27 19:15:00,
2013-08-27 14:21:00,92.9,63.5,30.04,SW,219,12.0,14.0,38,0.00,FEW,FEW,0.00,WeatherDisplay:10.37,2013-08-27 19:21:00,
2013-08-27 14:27:00,92.3,63.0,30.04,South,182,8.0,12.0,38,0.00,FEW,FEW,0.00,WeatherDisplay:10.37,2013-08-27 19:27:00,
2013-08-27 14:33:00,92.3,63.0,30.04,South,178,10.0,15.0,38,0.00,FEW,FEW,0.00,WeatherDisplay:10.37,2013-08-27 19:33:00,
2013-08-27 14:39:00,92.5,63.2,30.03,South,185,12.0,14.0,38,0.00,FEW,FEW,0.00,WeatherDisplay:10.37,2013-08-27 19:39:00,
2013-08-27 14:45:00,92.7,63.3,30.03,South,184,7.0,10.0,38,0.00,FEW,FEW,0.00,WeatherDisplay:10.37,2013-08-27 19:45:00,
2013-08-27 14:51:00,92.7,61.9,30.03,South,186,7.0,12.0,36,0.00,FEW,FEW,0.00,WeatherDisplay:10.37,2013-08-27 19:51:00,
2013-08-27 14:57:00,92.7,63.4,30.03,SSW,193,8.0,14.0,38,0.00,FEW,FEW,0.00,WeatherDisplay:10.37,2013-08-27 19:57:00,
2013-08-27 15:03:00,92.7,61.0,30.03,SSE,160,9.0,12.0,35,0.00,FEW,FEW,0.00,WeatherDisplay:10.37,2013-08-27 20:03:00,
2013-08-27 15:09:00,93.0,62.1,30.03,SE,131,12.0,15.0,36,0.00,FEW,FEW,0.00,WeatherDisplay:10.37,2013-08-27 20:09:00,
2013-08-27 15:15:00,93.8,63.6,30.02,SSE,150,5.0,7.0,37,0.00,FEW,FEW,0.00,WeatherDisplay:10.37,2013-08-27 20:15:00,
2013-08-27 15:21:00,93.5,63.3,30.02,South,178,8.0,14.0,37,0.00,FEW,FEW,0.00,WeatherDisplay:10.37,2013-08-27 20:21:00,
2013-08-27 15:27:00,93.2,61.4,30.02,SSE,158,9.0,13.0,35,0.00,FEW,FEW,0.00,WeatherDisplay:10.37,2013-08-27 20:27:00,
2013-08-27 15:33:00,92.7,61.1,30.02,South,174,8.0,12.0,35,0.00,FEW,FEW,0.00,WeatherDisplay:10.37,2013-08-27 20:33:00,
2013-08-27 15:39:00,93.8,62.8,30.02,SSW,211,5.0,14.0,36,0.00,FEW,FEW,0.00,WeatherDisplay:10.37,2013-08-27 20:39:00,
2013-08-27 15:45:00,94.9,62.1,30.02,SW,224,5.0,7.0,34,0.00,FEW,FEW,0.00,WeatherDisplay:10.37,2013-08-27 20:45:00,
2013-08-27 15:51:00,93.4,62.5,30.01,SW,215,9.0,14.0,36,0.00,FEW,FEW,0.00,WeatherDisplay:10.37,2013-08-27 20:51:00,
2013-08-27 15:57:00,93.2,62.3,30.01,SSE,152,7.0,13.0,36,0.00,FEW,FEW,0.00,WeatherDisplay:10.37,2013-08-27 20:57:00,
2013-08-27 16:03:00,93.2,62.2,30.01,SSE,156,9.0,12.0,36,0.00,FEW,FEW,0.00,WeatherDisplay:10.37,2013-08-27 21:03:00,
2013-08-27 16:09:00,93.2,62.2,30.01,SE,124,9.0,9.0,36,0.00,FEW,FEW,0.00,WeatherDisplay:10.37,2013-08-27 21:09:00,
2013-08-27 16:24:00,93.2,62.2,30.01,ESE,112,9.0,9.0,36,0.00,FEW,FEW,0.00,WeatherDisplay:10.37,2013-08-27 21:24:00,
2013-08-27 16:39:00,93.5,62.6,30.00,SSE,164,5.0,9.0,36,0.00,FEW,FEW,0.00,WeatherDisplay:10.37,2013-08-27 21:39:00,
2013-08-27 16:45:00,93.2,62.2,30.00,South,181,6.0,9.0,36,0.00,FEW,FEW,0.00,WeatherDisplay:10.37,2013-08-27 21:45:00,
2013-08-27 16:51:00,92.7,62.7,30.00,SSE,149,10.0,16.0,37,0.00,FEW,FEW,0.00,WeatherDisplay:10.37,2013-08-27 21:51:00,
2013-08-27 16:57:00,92.8,61.9,30.00,South,185,7.0,12.0,36,0.00,FEW,FEW,0.00,WeatherDisplay:10.37,2013-08-27 21:57:00,
2013-08-27 17:03:00,92.2,62.2,30.00,South,176,10.0,16.0,37,0.00,SCT,SCT,0.00,WeatherDisplay:10.37,2013-08-27 22:03:00,
2013-08-27 17:09:00,92.6,62.6,30.00,South,189,8.0,12.0,37,0.00,SCT,SCT,0.00,WeatherDisplay:10.37,2013-08-27 22:09:00,
2013-08-27 17:15:00,92.2,62.2,30.00,South,171,10.0,15.0,37,0.00,SCT,SCT,0.00,WeatherDisplay:10.37,2013-08-27 22:15:00,
2013-08-27 17:21:00,92.3,62.2,30.00,SSE,158,8.0,12.0,37,0.00,SCT,SCT,0.00,WeatherDisplay:10.37,2013-08-27 22:21:00,
2013-08-27 17:27:00,92.1,62.8,30.00,South,188,5.0,16.0,38,0.00,SCT,SCT,0.00,WeatherDisplay:10.37,2013-08-27 22:27:00,
2013-08-27 17:33:00,92.5,63.2,30.00,SSW,206,5.0,10.0,38,0.00,SCT,SCT,0.00,WeatherDisplay:10.37,2013-08-27 22:33:00,
2013-08-27 17:39:00,92.0,62.8,30.00,South,191,9.0,14.0,38,0.00,SCT,SCT,0.00,WeatherDisplay:10.37,2013-08-27 22:39:00,
2013-08-27 17:45:00,91.7,63.2,30.00,SSE,152,7.0,9.0,39,0.00,SCT,SCT,0.00,WeatherDisplay:10.37,2013-08-27 22:45:00,
2013-08-27 17:51:00,91.8,64.0,30.00,SSE,166,7.0,12.0,40,0.00,SCT,SCT,0.00,WeatherDisplay:10.37,2013-08-27 22:51:00,
2013-08-27 17:57:00,92.6,64.0,30.00,South,171,8.0,13.0,39,0.00,SCT,SCT,0.00,WeatherDisplay:10.37,2013-08-27 22:57:00,
2013-08-27 18:03:00,92.9,65.0,30.00,SSW,194,8.0,10.0,40,0.00,SCT,SCT,0.00,WeatherDisplay:10.37,2013-08-27 23:03:00,
2013-08-27 18:09:00,92.2,64.4,30.00,South,184,8.0,13.0,40,0.00,SCT,SCT,0.00,WeatherDisplay:10.37,2013-08-27 23:09:00,
2013-08-27 18:15:00,92.8,64.9,30.00,SSE,147,5.0,7.0,40,0.00,SCT,SCT,0.00,WeatherDisplay:10.37,2013-08-27 23:15:00,
2013-08-27 18:21:00,92.1,64.3,30.00,South,169,5.0,13.0,40,0.00,SCT,SCT,0.00,WeatherDisplay:10.37,2013-08-27 23:21:00,
2013-08-27 18:27:00,91.6,64.5,30.00,SSW,194,8.0,14.0,41,0.00,SCT,SCT,0.00,WeatherDisplay:10.37,2013-08-27 23:27:00,
2013-08-27 18:33:00,91.5,63.8,30.00,South,181,9.0,12.0,40,0.00,SCT,SCT,0.00,WeatherDisplay:10.37,2013-08-27 23:33:00,
2013-08-27 18:39:00,90.9,63.9,30.00,South,170,8.0,12.0,41,0.00,SCT,SCT,0.00,WeatherDisplay:10.37,2013-08-27 23:39:00,
2013-08-27 18:45:00,90.9,63.9,30.00,South,175,8.0,8.0,41,0.00,SCT,SCT,0.00,WeatherDisplay:10.37,2013-08-27 23:45:00,
2013-08-27 18:51:00,90.9,63.9,30.00,South,180,8.0,8.0,41,0.00,SCT,SCT,0.00,WeatherDisplay:10.37,2013-08-27 23:51:00,
2013-08-27 18:57:00,90.9,63.9,30.00,South,180,8.0,8.0,41,0.00,SCT,SCT,0.00,WeatherDisplay:10.37,2013-08-27 23:57:00,
2013-08-27 19:03:00,90.9,63.9,30.00,South,180,8.0,8.0,41,0.00,FEW,FEW,0.00,WeatherDisplay:10.37,2013-08-28 00:03:00,
2013-08-27 19:18:00,89.5,64.0,30.00,South,176,6.0,8.0,43,0.00,FEW,FEW,0.00,WeatherDisplay:10.37,2013-08-28 00:18:00,
2013-08-27 19:24:00,88.9,64.8,30.00,SSE,161,3.0,8.0,45,0.00,FEW,FEW,0.00,WeatherDisplay:10.37,2013-08-28 00:24:00,
2013-08-27 19:30:00,88.6,64.5,30.00,South,181,5.0,8.0,45,0.00,FEW,FEW,0.00,WeatherDisplay:10.37,2013-08-28 00:30:00,
2013-08-27 19:36:00,87.9,63.9,30.00,South,184,6.0,7.0,45,0.00,FEW,FEW,0.00,WeatherDisplay:10.37,2013-08-28 00:36:00,
2013-08-27 19:42:00,87.6,64.3,30.00,South,188,3.0,5.0,46,0.00,FEW,FEW,0.00,WeatherDisplay:10.37,2013-08-28 00:42:00,
2013-08-27 19:48:00,86.8,64.1,30.00,SE,138,5.0,7.0,47,0.00,FEW,FEW,0.00,WeatherDisplay:10.37,2013-08-28 00:48:00,
2013-08-27 19:54:00,86.1,64.1,30.00,SSE,154,3.0,6.0,48,0.00,FEW,FEW,0.00,WeatherDisplay:10.37,2013-08-28 00:54:00,
2013-08-27 20:00:00,85.6,64.2,30.00,SSE,160,5.0,6.0,49,0.00,FEW,FEW,0.00,WeatherDisplay:10.37,2013-08-28 01:00:00,
2013-08-27 20:06:00,85.3,63.9,30.00,SSE,158,3.0,7.0,49,0.00,SCT,SCT,0.00,WeatherDisplay:10.37,2013-08-28 01:06:00,
2013-08-27 20:12:00,85.0,64.8,30.00,SE,141,0.0,3.0,51,0.00,SCT,SCT,0.00,WeatherDisplay:10.37,2013-08-28 01:12:00,
2013-08-27 20:18:00,84.2,64.1,30.00,SSE,152,3.0,6.0,51,0.00,SCT,SCT,0.00,WeatherDisplay:10.37,2013-08-28 01:18:00,
2013-08-27 20:24:00,83.8,64.3,30.00,SSE,151,2.0,4.0,52,0.00,SCT,SCT,0.00,WeatherDisplay:10.37,2013-08-28 01:24:00,
2013-08-27 20:33:00,83.2,64.2,30.00,SE,146,2.0,3.0,53,0.00,SCT,SCT,0.00,WeatherDisplay:10.37,2013-08-28 01:33:00,
2013-08-27 20:39:00,82.6,64.2,30.00,SSE,149,2.0,3.0,54,0.00,SCT,SCT,0.00,WeatherDisplay:10.37,2013-08-28 01:39:00,
2013-08-27 20:45:00,82.3,64.5,30.00,SE,137,0.0,0.0,55,0.00,SCT,SCT,0.00,WeatherDisplay:10.37,2013-08-28 01:45:00,
2013-08-27 20:51:00,81.7,64.5,30.00,ESE,103,0.0,0.0,56,0.00,SCT,SCT,0.00,WeatherDisplay:10.37,2013-08-28 01:51:00,
2013-08-27 20:57:00,81.3,64.7,30.00,SE,125,3.0,5.0,57,0.00,SCT,SCT,0.00,WeatherDisplay:10.37,2013-08-28 01:57:00,
2013-08-27 21:03:00,80.8,64.6,30.01,SE,137,0.0,0.0,58,0.00,FEW,FEW,0.00,WeatherDisplay:10.37,2013-08-28 02:03:00,
2013-08-27 21:09:00,80.5,64.3,30.01,SE,129,0.0,0.0,58,0.00,FEW,FEW,0.00,WeatherDisplay:10.37,2013-08-28 02:09:00,
2013-08-27 21:15:00,79.9,64.3,30.01,ESE,107,1.0,4.0,59,0.00,FEW,FEW,0.00,WeatherDisplay:10.37,2013-08-28 02:15:00,
2013-08-27 21:24:00,79.6,64.5,30.01,ESE,119,0.0,0.0,60,0.00,FEW,FEW,0.00,WeatherDisplay:10.37,2013-08-28 02:24:00,
2013-08-27 21:30:00,79.0,64.4,30.02,ESE,107,1.0,4.0,61,0.00,FEW,FEW,0.00,WeatherDisplay:10.37,2013-08-28 02:30:00,
2013-08-27 21:39:00,78.8,64.6,30.02,South,172,2.0,5.0,62,0.00,FEW,FEW,0.00,WeatherDisplay:10.37,2013-08-28 02:39:00,
2013-08-27 21:45:00,78.8,64.6,30.02,East,82,5.0,7.0,62,0.00,FEW,FEW,0.00,WeatherDisplay:10.37,2013-08-28 02:45:00,
2013-08-27 21:51:00,78.3,64.2,30.02,ESE,119,0.0,0.0,62,0.00,FEW,FEW,0.00,WeatherDisplay:10.37,2013-08-28 02:51:00,
2013-08-27 21:57:00,77.9,64.2,30.02,SE,127,0.0,3.0,63,0.00,FEW,FEW,0.00,WeatherDisplay:10.37,2013-08-28 02:57:00,
2013-08-27 22:03:00,77.9,64.2,30.02,SSE,158,0.0,0.0,63,0.00,FEW,FEW,0.00,WeatherDisplay:10.37,2013-08-28 03:03:00,
2013-08-27 22:09:00,77.6,64.4,30.02,SSE,150,0.0,6.0,64,0.00,FEW,FEW,0.00,WeatherDisplay:10.37,2013-08-28 03:09:00,
2013-08-27 22:15:00,77.2,64.5,30.02,SE,129,1.0,6.0,65,0.00,FEW,FEW,0.00,WeatherDisplay:10.37,2013-08-28 03:15:00,
2013-08-27 22:21:00,77.2,64.5,30.02,North,3,6.0,6.0,65,0.00,FEW,FEW,0.00,WeatherDisplay:10.37,2013-08-28 03:21:00,
2013-08-27 22:27:00,77.2,64.5,30.02,North,360,6.0,6.0,65,0.00,FEW,FEW,0.00,WeatherDisplay:10.37,2013-08-28 03:27:00,
2013-08-27 22:33:00,77.2,64.5,30.02,North,360,6.0,6.0,65,0.00,FEW,FEW,0.00,WeatherDisplay:10.37,2013-08-28 03:33:00,
2013-08-27 22:45:00,76.5,64.3,30.03,North,8,5.0,6.0,66,0.00,FEW,FEW,0.00,WeatherDisplay:10.37,2013-08-28 03:45:00,
2013-08-27 23:18:00,75.1,65.0,30.03,South,180,6.0,8.0,71,0.00,FEW,FEW,0.00,WeatherDisplay:10.37,2013-08-28 04:18:00,
2013-08-27 23:24:00,75.0,65.4,30.03,SSW,208,5.0,8.0,72,0.00,FEW,FEW,0.00,WeatherDisplay:10.37,2013-08-28 04:24:00,
2013-08-27 23:30:00,74.7,65.4,30.03,SSE,162,3.0,7.0,73,0.00,FEW,FEW,0.00,WeatherDisplay:10.37,2013-08-28 04:30:00,
2013-08-27 23:36:00,74.5,65.6,30.03,SE,141,3.0,4.0,74,0.00,FEW,FEW,0.00,WeatherDisplay:10.37,2013-08-28 04:36:00,
2013-08-27 23:39:00,74.3,65.4,30.03,SE,133,3.0,6.0,74,0.00,FEW,FEW,0.00,WeatherDisplay:10.37,2013-08-28 04:39:00,
2013-08-27 23:45:00,74.1,65.7,30.03,SE,128,5.0,5.0,75,0.00,FEW,FEW,0.00,WeatherDisplay:10.37,2013-08-28 04:45:00,
2013-08-27 23:51:00,74.0,65.9,30.03,SSE,150,5.0,5.0,76,0.00,FEW,FEW,0.00,WeatherDisplay:10.37,2013-08-28 04:51:00,
2013-08-27 23:57:00,73.8,66.1,30.03,South,179,3.0,7.0,77,0.00,FEW,FEW,0.00,WeatherDisplay:10.37,2013-08-28 04:57:00,